Regional Weather Roundup
Issued by NWS Northern Indiana

Home | Current Version | Previous Version | Graphics & Text | Print | Product List | Glossary On
Versions: 1 2 3 4 5 6 7 8 9 10 11 12 13 14 15 16 17 18 19 20 21 22 23 24 25 26 27 28 29 30 31 32 33 34 35 36 37 38 39 40 41 42 43 44 45 46 47 48 49 50
000
ASUS43 KIWX 292110
RWRIWX

KIWX WEATHER ROUNDUP
NATIONAL WEATHER SERVICE NORTHERN INDIANA
500 PM EDT FRI APR 29 2016

NOTE: "FAIR" INDICATES FEW OR NO CLOUDS BELOW 12,000 FEET WITH NO
SIGNIFICANT WEATHER AND/OR OBSTRUCTIONS TO VISIBILITY.

* THESE STATIONS ARE NOT UNDER NWS QUALITY CONTROL. THEY ALSO MAY NOT
  REPORT WEATHER SUCH AS PRECIPITATION OR FOG.

INZ001>027-292200-
NORTHERN INDIANA

CITY           SKY/WX    TMP DP  RH WIND       PRES   REMARKS
GARY*          CLOUDY    48  45  87 N9        30.13R
VALPARAISO     CLOUDY    49  42  77 N12       30.09S
MICHIGAN CITY* CLOUDY    43  43 100 NW5       30.13R FOG
LAPORTE*       CLOUDY    48  46  92 NW7       30.12R
KNOX*          CLOUDY    50  37  62 NW13      30.09R
SOUTH BEND     CLOUDY    48  44  86 NW8       30.10R
ELKHART*       CLOUDY    52  46  82 CALM      30.09R
GOSHEN         CLOUDY    53  44  71 E5        30.09R
MONTICELLO*    CLOUDY    54  43  66 CALM      30.07S
LOGANSPORT*    CLOUDY    54  45  71 CALM      30.09R
ROCHESTER*     PTSUNNY   55  46  71 CALM      30.07S
WARSAW*        CLOUDY    52  45  76 CALM      30.08R
ANGOLA*        CLOUDY    54  43  66 CALM      30.07R
FORT WAYNE     CLOUDY    54  44  69 CALM      30.08S
HUNTINGTON*    CLOUDY   N/A N/A N/A CALM      30.07S
PERU/GRISSOM   CLOUDY    56  48  74 W5        30.06R
MARION*        CLOUDY    57  46  66 CALM      30.07R

$$
INZ028>050-292200-
CENTRAL INDIANA

CITY           SKY/WX    TMP DP  RH WIND       PRES   REMARKS
LAFAYETTE      CLOUDY    57  47  69 NE6       30.07R
KOKOMO*        CLOUDY    57  46  67 NW5       30.07R
MUNCIE*        CLOUDY    60  47  61 MISG      30.05F
INDIANAPOLIS   CLOUDY    64  46  52 NW6       30.03F

$$
MIZ043>046-050>051-056>058-064>065-071>073-077>080-292200-
SOUTHWEST LOWER MICHIGAN

CITY           SKY/WX    TMP DP  RH WIND       PRES   REMARKS
BATTLE CREEK   CLOUDY    52  39  61 N5        30.08R
BENTON HARBOR  CLOUDY    48  41  76 NW5       30.10R
COLDWATER*     CLOUDY    54  41  62 NE6       30.07R
HILLSDALE*     CLOUDY    53  40  61 N5        30.07R
HOLLAND        CLOUDY    53  40  61 NE6       30.09S
GRAND RAPIDS   CLOUDY    54  41  61 NE10      30.09S
KALAMAZOO      CLOUDY    53  39  59 NE3       30.09R
STURGIS*       CLOUDY    52  43  70 CALM      30.07R
THREE RIVERS*  CLOUDY    53  43  70 CALM      30.08S

$$
OHZ001>008-015>018-024>025-292200-
NORTHWEST OHIO

CITY           SKY/WX    TMP DP  RH WIND       PRES   REMARKS
WAUSEON*         N/A     54 N/A N/A E8G14     30.08R
DEFIANCE       CLOUDY    56  40  55 CALM      30.07S
FINDLAY        CLOUDY    55  41  59 E5        30.05S
TOLEDO EXPRESS CLOUDY    52  40  63 E13       30.07R
TOLEDO METCALF CLOUDY    50  38  63 NE9       30.10R
LIMA           CLOUDY    52  46  80 NW6       30.06R

$$
AND FOR LAKE MICHIGAN COASTAL AND OPEN LAKE BUOY OBSERVATIONS

STATION/POSITION TEMP    WIND        PRES    VSBY  WAVE
                 AIR SEA DIR/SP/G                  HT/PER
                 (F)     (DEG/KT/KT) (MB)    (MI)  (FT/S)
CALUMET HARBOR    43     340/  9/ 12 1019.2R
MICHIGAN CITY     42     310/  8/  9   N/A
BURNS HARBOR      42     340/  7/  9 1020.7R
SAINT JOSEPH      46     350/  6/ 10 1019.3R
SOUTH LAKE BUOY   40 40  360/ 10/ 12 1020.0S         1/ 3
4 MI NW BRIDGMAN  43 46                N/A           2/ 3

$$
&&




USA.gov is the U.S. government's official web portal to all federal, state and local government web resources and services.